This demonstration page uses our WeatherBlox Daily Observations layout. Learn more.

Left ArrowRight Arrow

Hourly Observations for March 18, 2015

Temp ( °F °C ) Dew Point ( °F °C ) Humidity (%) Winds ( mph kmh ) Pressure ( in mb ) Visibility ( mi km ) Precip ( " mm )
12:15 am 00:15 Clear 36 2 14 -10 41 41 NNW 16 26 30.15 1021 10 16 N/A
12:35 am 00:35 Clear 36 2 14 -10 41 41 NNW 17 28 30.15 1021 10 16 N/A
12:55 am 00:55 Clear 36 2 14 -10 41 41 NNW 15 24 30.15 1021 10 16 N/A
1:15 am 01:15 Clear 36 2 14 -10 41 41 NNW 13 20 30.15 1021 10 16 N/A
1:35 am 01:35 Clear 34 1 16 -9 48 48 NNW 10 17 30.15 1021 10 16 N/A
1:55 am 01:55 Clear 34 1 16 -9 48 48 NW 6 9 30.15 1021 10 16 N/A
2:15 am 02:15 Clear 34 1 16 -9 48 48 NNW 6 9 30.15 1021 10 16 N/A
2:35 am 02:35 Clear 34 1 16 -9 48 48 N N/A 30.15 1021 10 16 N/A
2:55 am 02:55 Clear 32 undefined 16 -9 51 51 NW 5 7 30.15 1021 10 16 N/A
3:15 am 03:15 Clear 32 undefined 16 -9 51 51 NNW 6 9 30.15 1021 10 16 N/A
3:35 am 03:35 Clear 32 undefined 16 -9 51 51 N 3 6 30.15 1021 10 16 N/A
3:55 am 03:55 Clear 32 undefined 16 -9 51 51 N N/A 30.15 1021 10 16 N/A
4:15 am 04:15 Clear 32 undefined 16 -9 51 51 N N/A 30.15 1021 10 16 N/A
4:35 am 04:35 Clear 32 undefined 18 -8 55 55 N N/A 30.15 1021 10 16 N/A
4:55 am 04:55 Clear 32 undefined 18 -8 55 55 N N/A 30.15 1021 10 16 N/A
5:15 am 05:15 Clear 32 undefined 18 -8 55 55 N N/A 30.18 1022 10 16 N/A
5:35 am 05:35 Clear 32 undefined 18 -8 55 55 N N/A 30.18 1022 10 16 N/A
5:55 am 05:55 Clear 30 -1 18 -8 59 59 N N/A 30.18 1022 10 16 N/A
6:15 am 06:15 Clear 32 undefined 18 -8 55 55 N N/A 30.18 1022 10 16 N/A
6:35 am 06:35 Clear 32 undefined 18 -8 55 55 NNE 5 7 30.18 1022 10 16 N/A
6:55 am 06:55 Clear 32 undefined 18 -8 55 55 N 8 13 30.21 1023 10 16 N/A
7:15 am 07:15 Clear 32 undefined 18 -8 55 55 NNW 9 15 30.21 1023 10 16 N/A
7:35 am 07:35 Sunny 32 undefined 16 -9 51 51 NNW 9 15 30.24 1024 10 16 N/A
7:55 am 07:55 Sunny 32 undefined 14 -10 47 47 NW 13 20 30.24 1024 10 16 N/A
8:15 am 08:15 Sunny 34 1 12 -11 41 41 NNW 9 15 30.24 1024 10 16 N/A
8:35 am 08:35 Sunny 34 1 14 -10 44 44 N 10 17 30.24 1024 10 16 N/A
8:55 am 08:55 Sunny 36 2 14 -10 41 41 NNW 13 20 30.24 1024 10 16 N/A
9:15 am 09:15 Sunny 36 2 14 -10 41 41 NNW 16 26 30.24 1024 10 16 N/A
9:35 am 09:35 Sunny 36 2 14 -10 41 41 NW 17 28 30.27 1025 10 16 N/A
9:55 am 09:55 Sunny 36 2 14 -10 41 41 NNW 16 26 30.27 1025 10 16 N/A
10:15 am 10:15 Sunny 37 3 14 -10 38 38 WNW 15 24 30.27 1025 10 16 N/A
10:35 am 10:35 Sunny 37 3 14 -10 38 38 NW 15 24 30.27 1025 10 16 N/A
10:55 am 10:55 Sunny 37 3 14 -10 38 38 NW 18 30 30.27 1025 10 16 N/A
11:15 am 11:15 Sunny 39 4 14 -10 36 36 NNW 21 33 30.27 1025 10 16 N/A
11:35 am 11:35 Sunny 41 5 14 -10 33 33 NNW 21 33 30.27 1025 10 16 N/A
11:55 am 11:55 Sunny 41 5 14 -10 33 33 NW 15 24 30.27 1025 10 16 N/A
12:15 pm 12:15 Sunny 41 5 14 -10 33 33 NNW 15 24 30.24 1024 10 16 N/A
12:35 pm 12:35 Sunny 43 6 16 -9 34 34 NNW 16 26 30.24 1024 10 16 N/A
12:55 pm 12:55 Sunny 43 6 14 -10 31 31 WNW 18 30 30.24 1024 10 16 N/A
1:15 pm 13:15 Sunny 45 7 14 -10 29 29 NNW 16 26 30.24 1024 10 16 N/A
1:35 pm 13:35 Sunny 45 7 16 -9 31 31 WNW 15 24 30.21 1023 10 16 N/A
1:55 pm 13:55 Sunny 45 7 14 -10 29 29 NNW 13 20 30.21 1023 10 16 N/A
2:15 pm 14:15 Sunny 46 8 14 -10 27 27 NNW 17 28 30.21 1023 10 16 N/A
2:35 pm 14:35 Sunny 46 8 14 -10 27 27 NNW 20 31 30.18 1022 10 16 N/A
2:55 pm 14:55 Sunny 48 9 18 -8 29 29 NW 14 22 30.18 1022 10 16 N/A
3:10 pm 15:10 Sunny 46 8 16 -9 29 29 NW 15 24 30.18 1022 10 16 N/A
3:35 pm 15:35 Sunny 50 10 18 -8 28 28 WNW 16 26 30.15 1021 10 16 N/A
3:55 pm 15:55 Sunny 48 9 16 -9 27 27 W 15 24 30.15 1021 10 16 N/A
4:15 pm 16:15 Sunny 50 10 18 -8 28 28 NW 12 19 30.15 1021 10 16 N/A
4:35 pm 16:35 Sunny 50 10 18 -8 28 28 W 15 24 30.15 1021 10 16 N/A
4:55 pm 16:55 Sunny 50 10 18 -8 28 28 WNW 10 17 30.15 1021 10 16 N/A
5:15 pm 17:15 Sunny 48 9 18 -8 29 29 WNW 13 20 30.15 1021 10 16 N/A
5:35 pm 17:35 Sunny 50 10 18 -8 28 28 NW 13 20 30.15 1021 10 16 N/A
5:55 pm 17:55 Sunny 48 9 18 -8 29 29 NW 12 19 30.15 1021 10 16 N/A
6:15 pm 18:15 Sunny 48 9 18 -8 29 29 W 9 15 30.15 1021 10 16 N/A
6:35 pm 18:35 Sunny 46 8 18 -8 32 32 NW 12 19 30.15 1021 10 16 N/A
6:55 pm 18:55 Sunny 46 8 18 -8 32 32 WNW 5 7 30.15 1021 10 16 N/A
7:15 pm 19:15 Sunny 45 7 18 -8 34 34 NW 6 9 30.18 1022 10 16 N/A
7:35 pm 19:35 Clear 45 7 16 -9 31 31 NW 5 7 30.18 1022 10 16 N/A
7:55 pm 19:55 Clear 41 5 16 -9 36 36 N N/A 30.18 1022 10 16 N/A
8:15 pm 20:15 Clear 43 6 18 -8 36 36 WNW 3 6 30.18 1022 10 16 N/A
8:35 pm 20:35 Clear 41 5 18 -8 39 39 W 3 6 30.21 1023 10 16 N/A
8:55 pm 20:55 Clear 39 4 18 -8 42 42 NW 7 11 30.21 1023 10 16 N/A
9:15 pm 21:15 Clear 41 5 18 -8 39 39 NW 7 11 30.21 1023 10 16 N/A
9:35 pm 21:35 Clear 37 3 18 -8 45 45 W 3 6 30.21 1023 10 16 N/A
9:55 pm 21:55 Clear 41 5 18 -8 39 39 N N/A 30.24 1024 10 16 N/A
10:15 pm 22:15 Clear 41 5 18 -8 39 39 W 3 6 30.24 1024 10 16 N/A
10:35 pm 22:35 Clear 34 1 19 -7 56 56 WNW 8 13 30.24 1024 10 16 N/A
10:55 pm 22:55 Clear 36 2 19 -7 52 52 WNW 8 13 30.24 1024 10 16 N/A
11:15 pm 23:15 Clear 37 3 19 -7 48 48 WNW 7 11 30.24 1024 10 16 N/A
11:35 pm 23:35 Clear 39 4 19 -7 45 45 NW 7 11 30.24 1024 10 16 N/A
11:55 pm 23:55 Clear 39 4 18 -8 42 42 NW 6 9 30.24 1024 10 16 N/A

Powered by AerisWeather